Location: Lombard
(41.8800°N, 88.0080°W)
Time: 22:59:46
(UTC-05:00)

Tiros 1 - Pass Details

Date: 29 January 2023
Orbit: 628 x 662 km, 48.4° (Epoch: 20 March)

Event Time Altitude Azimuth Distance (km) Brightness Sun altitude
Rises 02:21:34 0° 239° (WSW) 2,906 - -52.4°
Reaches altitude 10° 02:23:52 10° 238° (WSW) 2,004 - -52.0°
Maximum altitude 02:28:29 85° 150° (SSE) 641 - -51.3°
Drops below altitude 10° 02:33:10 10° 63° (ENE) 2,032 - -50.5°
Sets 02:35:31 0° 63° (ENE) 2,949 - -50.1°
Exits shadow 02:35:42 -1° 63° (ENE) 3,025 11.3 -50.0°
